Orbital Elements at Epoch 2459200.5 (2020-Dec-17.0) TDB
Reference: JPL 15 (heliocentric ecliptic J2000)
Element | Value | Uncertainty (1-sigma) | Units |
e | .249054086615178 | 5.9157e-08 | |
a | 2.60656838762749 | 1.2335e-08 | au |
q | 1.957391878646928 | 1.5106e-07 | au |
i | 12.35669559142983 | 6.0106e-06 | deg |
node | 51.11609107267077 | 2.3845e-05 | deg |
peri | 293.1647036814807 | 2.6905e-05 | deg |
M | 223.9367782664103 | 1.6179e-05 | deg |
tp | 2459781.452148184196 (2022-Jul-20.95214818) | 7.179e-05 | TDB |
period | 1537.099964866406 4.21 | 1.0911e-05 2.987e-08 | d yr |
n | .2342072787902827 | 1.6625e-09 | deg/d |
Q | 3.255744896608052 | 1.5408e-08 | au |
|
| | Orbit Determination Parameters
Additional Information
|